Volver al catálogo

COSMOS 1639

ActivoMilitarLEO
NORAD 15621·PAYLOAD·🇷🇺 Russia

Lanzado Mar 21, 1985 desde Plesetsk Cosmodrome

Loading…

Próximos Pases (próximas 24 horas)

TLE

ActualizadoSource: Space-Track

Época: Sep 14, 2026, 20:09 UTC

1 15621U 85023E   26257.84024039 -.00000015  00000-0  59359-5 0  9998
2 15621  74.0549 208.3046 0025807 299.7954  87.3143 12.51059587894725

Sigue COSMOS 1639 en tiempo real con AllMySat

Download on the App Store